Vorticity
nan nan nan nan nan nan nan nan nan nan nan nan nan nan nan nan nan nan nan nan nan nan nan nan nan nan nan nan nan nan nan nan nan nan nan nan nan nan nan nan nan nan nan nan nan nan nan nan nan
nan 7 6 8 4 1 9 8 6 9 14 15 5 4 6 -2 10 11 4 12 8 -0 -2 2 12 7 5 4 5 5 6 6 5 5 5 7 6 5 5 5 5 5 5 4 4 3 2 3 nan
nan 8 5 9 2 0 2 2 11 4 6 12 4 10 8 -1 2 3 13 21 10 8 9 23 16 16 1 6 6 5 5 5 5 5 5 6 6 5 5 4 5 5 5 4 3 3 2 2 nan
nan 4 7 8 3 4 2 9 10 2 1 6 8 7 12 6 -4 4 16 14 10 14 13 25 33 8 7 3 6 6 6 6 7 6 5 6 6 4 4 5 5 5 5 4 3 2 2 3 nan
nan 10 6 2 6 8 11 15 9 8 5 2 11 7 5 1 4 5 8 9 11 9 9 3 11 1 23 16 9 6 5 6 7 6 5 6 6 5 5 5 5 5 4 3 3 3 3 4 nan
nan 8 3 5 4 10 14 9 8 6 11 5 7 9 4 2 3 5 8 11 8 5 6 7 4 3 -2 31 37 6 7 6 7 7 7 6 5 5 5 5 5 5 5 4 3 3 2 4 nan
nan 5 5 4 3 11 6 5 11 9 6 8 6 7 4 10 5 7 6 9 8 8 8 10 6 3 -5 21 19 17 6 10 12 11 9 6 6 6 5 5 5 5 5 5 4 3 4 4 nan
nan 2 5 5 10 13 5 6 6 5 9 11 6 4 9 14 9 6 6 9 7 7 6 9 7 4 -1 2 -1 10 5 3 9 11 9 5 2 3 3 4 6 6 5 4 3 4 4 4 nan
nan 4 7 3 8 10 8 6 7 10 5 3 11 13 16 8 5 4 7 7 8 7 7 7 11 8 8 5 3 3 1 -1 0 0 1 -0 2 2 4 6 6 5 4 5 3 4 4 3 nan
nan 5 4 6 6 9 12 9 6 7 6 6 9 14 11 7 3 5 8 6 5 7 8 9 9 7 6 5 4 1 -2 -1 4 2 0 4 7 6 4 4 2 2 4 1 4 4 2 3 nan
nan 3 4 6 6 8 5 5 16 14 -3 12 18 12 4 5 4 7 6 7 8 11 9 8 6 7 6 5 3 3 6 6 6 7 6 6 5 5 4 3 2 3 3 3 5 3 5 8 nan
nan 9 7 5 7 5 6 13 8 11 2 8 17 9 9 8 7 7 7 7 7 8 8 7 8 9 7 7 6 4 8 7 6 8 7 5 6 7 7 6 6 6 6 7 6 7 8 7 nan
nan 10 9 6 6 6 8 13 6 -5 3 3 14 11 7 5 8 7 6 8 9 7 5 9 10 6 7 7 5 7 8 8 8 7 5 7 8 7 6 7 7 7 7 7 7 8 6 5 nan
nan 8 8 7 7 9 12 8 5 7 9 8 8 2 5 9 7 6 7 5 7 7 7 8 8 8 9 7 5 6 7 8 8 8 7 7 7 8 6 7 7 7 7 8 8 7 7 6 nan
nan 11 11 8 9 7 10 2 9 19 12 5 9 7 10 9 6 5 6 7 7 6 6 5 7 9 8 5 4 4 7 8 7 9 9 8 7 7 7 7 7 8 9 7 7 7 8 7 nan
nan 9 9 5 8 15 13 6 7 10 8 7 7 5 10 12 9 7 7 7 6 7 6 6 8 7 3 4 5 5 7 8 7 8 8 8 8 6 7 7 7 8 8 8 8 7 7 8 nan
nan 8 4 13 16 12 7 9 13 8 6 11 9 7 6 8 11 9 8 7 7 6 5 7 8 5 4 6 6 7 7 6 8 7 8 7 8 6 7 7 9 8 7 8 7 7 7 8 nan
nan 5 9 13 18 9 5 8 11 10 7 5 2 11 16 8 8 7 7 7 8 6 6 6 8 6 6 5 6 8 8 8 7 8 9 7 7 7 6 8 9 7 7 6 7 8 6 8 nan
nan 3 8 16 11 9 4 10 7 6 6 6 4 9 14 8 9 9 7 7 7 8 7 9 8 5 3 7 7 8 8 7 8 10 10 7 7 7 6 8 8 7 8 7 6 8 8 7 nan
nan 9 7 8 7 9 8 13 15 5 8 10 6 11 10 9 11 9 8 7 8 8 8 8 6 4 3 6 6 8 9 7 9 9 10 9 7 7 8 7 7 7 7 8 8 6 8 9 nan
nan 8 9 7 5 7 10 11 15 9 10 15 16 15 10 10 5 7 8 6 7 7 7 5 5 5 8 5 3 5 7 9 8 8 10 12 11 6 6 6 7 8 6 8 9 9 7 7 nan
nan 10 9 5 10 15 8 10 7 15 12 14 17 10 10 10 8 8 6 6 7 5 6 6 7 7 8 7 6 6 5 6 8 7 9 13 11 8 7 7 6 7 8 7 8 10 9 11 nan
nan 9 8 8 9 10 7 12 4 14 16 9 15 13 10 11 8 8 6 7 8 8 8 8 8 7 6 5 4 5 5 6 8 11 10 9 11 9 7 6 7 9 10 9 9 9 8 6 nan
nan 10 9 9 8 8 13 5 9 14 16 8 10 15 9 12 10 8 8 7 7 7 8 8 7 7 7 5 5 7 6 5 7 9 9 9 9 10 9 8 7 7 10 10 8 9 10 9 nan
nan 7 8 9 14 8 10 11 11 10 10 15 15 11 8 9 10 9 8 5 8 8 5 6 7 7 8 7 6 7 9 8 6 6 9 9 9 10 10 9 9 10 10 11 10 9 10 10 nan
nan 9 8 11 5 7 9 11 14 13 9 14 19 14 6 7 10 12 8 7 8 8 7 7 6 7 9 10 9 5 5 5 9 7 9 9 8 8 11 10 10 11 10 9 8 9 11 11 nan
nan 10 5 7 8 11 7 6 15 16 10 10 13 15 14 12 12 11 11 8 9 9 9 8 7 6 6 7 12 13 6 7 10 5 8 12 9 12 12 9 8 9 10 10 9 10 10 9 nan
nan 3 5 7 12 8 10 10 6 7 12 16 8 9 17 16 17 17 15 11 8 10 11 9 10 9 5 5 7 11 13 8 12 14 12 10 9 11 11 11 11 10 9 9 8 10 10 8 nan
nan 8 10 11 6 7 11 11 12 7 10 10 8 7 6 9 10 14 19 23 16 8 10 10 9 8 9 7 8 7 11 13 12 9 12 10 10 10 10 11 10 9 8 8 9 10 10 8 nan
nan nan nan nan nan nan nan nan nan nan nan nan nan nan nan nan nan nan nan nan nan nan nan nan nan nan nan nan nan nan nan nan nan nan nan nan nan nan nan nan nan nan nan nan nan nan nan nan nan
CAPE
0 0 0 0 0 0 0 0 0 0 13 113 108 156 116 159 478 654 538 23 59 5 5 95 642 1767 1720 1406 1113 1007 981 970 892 785 790 1073 1147 1014 765 523 255 158 2 0 0 0 0 0 0
0 0 0 0 0 0 0 0 0 0 81 157 19 38 35 1070 1283 669 416 182 238 113 16 8 3 478 1690 1380 1073 1024 1110 1011 927 852 1064 1191 1141 805 507 282 185 196 5 0 0 0 0 0 0
0 0 0 0 0 0 0 0 0 30 110 64 0 95 713 216 1095 1326 786 274 47 48 4 1 68 840 1523 1240 944 960 923 856 834 860 1105 1262 1143 650 438 273 215 173 0 0 0 0 0 0 0
0 0 0 0 0 0 0 0 8 72 70 33 27 169 362 6 773 734 288 484 854 844 433 566 727 830 1206 1145 979 850 714 695 721 839 1089 1315 1154 589 455 334 257 180 0 0 0 0 0 0 0
0 0 0 0 0 0 0 0 17 6 28 109 83 104 78 326 533 242 402 381 353 220 63 0 3 74 2 1007 962 663 614 646 712 910 1030 1134 938 561 455 318 179 96 0 0 0 0 0 0 0
0 0 0 0 0 0 3 16 79 113 63 176 23 108 142 248 139 69 308 177 75 47 3 0 9 0 1 36 559 487 563 651 918 1006 1066 1022 697 485 403 209 96 79 39 0 0 0 0 0 0
0 0 0 0 0 0 18 11 114 176 121 230 36 5 348 67 15 19 126 152 83 5 4 0 0 2 1 71 28 163 260 677 841 861 813 740 353 285 212 131 109 93 42 0 0 0 0 0 0
0 0 0 0 0 0 26 5 66 9 51 155 200 497 311 71 2 1 1 1 9 18 4 0 1 0 0 0 3 61 112 238 373 405 292 178 144 139 110 82 103 75 32 0 0 0 0 0 0
0 0 0 0 0 5 27 1 37 0 3 0 553 594 255 59 2 3 3 1 1 4 7 3 1 1 1 2 3 38 158 270 220 183 91 60 29 22 26 77 83 86 45 26 0 0 0 0 0
0 0 0 0 0 0 6 17 5 31 0 0 391 433 147 143 36 4 4 3 3 4 5 3 1 0 0 4 2 10 81 64 77 53 6 6 7 23 41 75 76 84 61 32 1 0 0 0 0
0 0 0 0 0 0 0 0 5 0 8 0 10 453 240 193 151 11 6 3 3 4 6 6 3 5 0 0 0 0 31 78 58 24 0 8 10 23 24 14 9 1 1 0 0 0 0 0 0
0 0 0 0 0 0 0 0 4 0 0 30 32 470 573 162 49 4 6 4 3 3 3 2 1 2 0 0 0 0 47 93 47 6 36 9 6 4 1 0 0 0 0 0 0 0 0 0 0
0 0 0 0 0 0 0 14 118 0 0 0 377 517 445 193 23 2 6 7 6 6 8 8 3 0 0 0 0 14 45 34 54 69 74 36 20 0 1 0 0 0 0 0 0 0 0 0 0
0 0 0 0 0 0 0 3 53 0 0 5 582 420 246 203 29 4 3 5 4 5 5 4 5 2 1 0 0 1 16 25 96 82 81 80 46 3 1 0 0 0 0 0 0 0 0 0 0
0 0 0 0 0 0 0 0 0 0 0 71 814 442 406 306 22 0 2 6 4 2 1 2 5 0 0 0 0 0 17 60 95 126 141 97 77 7 12 0 0 0 0 0 0 0 0 0 0
0 0 0 0 0 0 0 0 0 13 227 598 572 442 376 251 20 1 1 1 1 3 2 5 10 0 0 0 0 0 8 39 84 100 108 125 149 45 4 0 0 0 0 0 0 0 0 0 0
0 0 0 0 0 0 0 0 0 6 23 36 516 481 368 167 10 0 0 0 0 0 0 0 0 0 0 0 2 4 3 15 6 24 41 73 111 35 45 0 0 0 0 0 0 0 0 0 0
0 0 0 0 0 3 0 0 17 1 0 46 23 82 381 105 17 0 0 0 0 0 0 0 0 0 0 0 0 9 0 1 0 0 5 28 31 85 26 4 0 0 0 0 0 0 0 0 0
0 0 0 0 0 1 0 5 4 14 47 21 0 72 191 134 52 0 0 0 0 0 0 0 0 0 0 0 0 7 0 0 0 0 0 0 0 67 8 0 0 0 0 0 0 0 0 0 0
0 0 0 2 0 0 0 0 24 1 0 0 5 36 165 252 60 10 0 0 0 0 0 0 0 0 0 0 0 0 0 0 0 0 0 17 10 43 29 0 0 0 0 0 0 0 0 0 0
0 0 0 0 0 0 0 0 10 4 22 0 15 149 67 249 78 18 0 0 0 0 0 0 0 0 0 0 0 0 0 0 0 0 0 73 129 157 164 5 4 0 0 0 0 0 0 0 0
0 0 0 4 1 0 0 0 0 0 0 4 69 215 76 172 139 30 0 0 0 0 0 0 0 0 0 0 0 0 0 0 0 0 0 109 142 165 131 118 47 0 0 0 0 0 0 0 0
0 7 0 7 0 0 0 0 2 0 0 7 23 152 73 26 17 1 0 0 0 0 0 0 0 0 0 0 0 0 0 0 0 0 0 94 122 108 129 50 34 0 0 0 0 0 0 0 0
0 0 0 0 0 0 0 4 0 0 0 0 3 58 51 57 73 30 2 0 1 0 0 0 0 0 0 0 3 11 0 0 0 0 0 36 124 92 68 81 19 0 0 0 0 0 0 0 0
0 0 0 0 0 0 34 7 0 0 0 0 0 41 3 14 78 69 56 0 0 0 0 0 0 1 0 0 3 13 23 0 0 0 0 31 66 148 111 8 0 0 0 0 0 0 0 0 0
0 0 0 0 0 22 5 1 0 0 0 0 0 58 80 3 45 108 68 101 9 2 0 1 3 15 0 0 5 1 7 1 0 0 0 81 102 76 0 0 0 0 0 0 0 0 0 0 0
0 0 1 25 3 0 13 6 5 0 0 0 0 10 114 62 13 45 129 105 179 55 25 25 3 0 25 21 72 82 35 60 9 17 3 66 78 3 0 0 0 0 0 0 0 0 0 0 0
0 5 13 39 0 1 28 20 0 0 0 0 0 0 0 0 0 0 5 325 317 341 310 180 150 115 88 108 102 233 202 90 191 89 5 0 4 0 0 0 0 1 0 0 0 0 0 0 0
0 0 16 30 5 0 23 10 0 0 0 0 0 0 0 0 0 0 2 36 452 508 416 376 391 421 352 272 178 205 254 281 153 28 19 45 0 0 0 0 1 0 0 0 0 0 0 0 0
0 0 4 13 14 10 2 32 4 0 0 0 0 0 0 2 4 54 29 37 140 404 425 612 597 492 396 318 305 280 98 96 34 21 35 0 0 0 1 0 1 0 0 0 0 0 0 0 0